Location: Br�znic
(45.9167°N, 22.6500°E)
Time: 17:01:04
(UTC+00:00)

BREEZE-M DEB (TANK) - Pass Details

Date: 03 March 2021
Orbit: 351 x 16374 km, 49.4° (Epoch: 11 April)

Event Time Altitude Azimuth Distance (km) Brightness Sun altitude
Rises 17:18:47 0° 231° (SW) 5,378 8.2 -11.2°
Reaches altitude 10° 17:23:47 10° 226° (SW) 3,030 6.7 -12.1°
Maximum altitude 17:29:11 44° 155° (SSE) 744 2.7 -13.0°
Enters shadow 17:30:35 24° 95° (E) 951 2.9 -13.3°
